Find Starlink 32584

NORAD ID: 62179 Int'l Des: 2024-225 Owner: SPXS Country: US Constellation: starlink operational
LEOCIRCULAR

实时位置

正在加载3D地球...

关于 Starlink 32584

正在加载描述...

即将过境

Passes for default location (London). Set your location on the main map for personalized predictions.

高度历史

Loading altitude history...

两行轨道根数

1 62179U 24225S 26125.42312041 .00006855 00000-0 58157-3 0 9996
2 62179 70.0025 21.3258 0002435 273.9684 86.1197 14.98341554 78376
Epoch: May 5, 2026 • Age: 11 hours

当前状态

高度 577.6 km
速度 7.58 km/s
星下点 37.43°N, 150.78°W
发射日期 Nov 30, 2024
运行时间 1.4 years
类型 internet

技术详情

分类 Payload
质量 730.00 kg
干质量 700.00 kg
总质量 730.00 kg
长度 0.30 m
直径 4.10 m
跨度 29.00 m
形状 Box + pan
制造商 SPXS
平台类型 Starlink V2M
阶段状态 In Orbit
所有者/国家 SPXS/US

Most Searched